www.pogodaiklimat.ru

Погода и климат >> Архив погоды >> Россия >> Калининградская область >> Балтийск


ПОГОДА в Балтийске

  • Прогноз погоды в Балтийске
  • Монитор погоды в Балтийске

АРХИВ ПОГОДЫ в Балтийске

Время (UTC), дата Ветер
(напр.,м/с)
 
Видим.   Явления Облачность Т
(С)
Тd
(С)
f
(%)
Тe
(С)
Тes
(С)
Комфортность P
(гПа)
Po
(гПа)
Тmin
(С)
Tmax
(С)
R
(мм)
R24
(мм)
S
(см)
09 9.07 С 3-6
{11}
20 км в посл. час ливневой дождь 9/6 300 м
[Cb cap Ci fib]
+16.6 +13.3 81 +16 +20 1007.6 1007.1
12 9.07 СЗ 3-6
{8}
20 км слаб. ливневой дождь 10/10 300 м
[Cb cap]
+16.2 +13.1 82 +16 +16 1008.5 1008.0
15 9.07 СЗ 4-10
{10}
20 км {ливн. осадки} 10/10 300 м
[Cb cap]
+15.5 +12.0 80 +15 +15 1009.4 1008.9 7
18 9.07 СЗ 6-10
{11}
20 км {ливн. осадки} 10/10 300 м
[Cb cap]
+14.8 +12.7 87 +13 +13 1009.4 1008.9 +17.3 4
21 9.07 С 6-11
{12}
20 км {ливн. осадки} 9/9 300 м
[Cb cap]
+14.8 +10.0 73 +13 +13 1010.3 1009.8
00 10.07 С 4-9
{10}
20 км {ливн. осадки} 9/9 300 м
[Cb cap]
+14.1 +10.5 79 +13 +13 1010.1 1009.6
03 10.07 СЗ 4-9
{10}
20 км 9/9 300 м
[Cb cap]
+14.2 +10.2 77 +13 +13 1009.9 1009.4 +13.0 0.4
06 10.07 СЗ 3-6
{10}
20 км {ливн. осадки} 10/10 300 м
[Cb cap]
+14.4 +9.7 73 +14 +14 1009.7 1009.2 +12.6 0.4
09 10.07 С 4-9
{9}
20 км 9/9 300 м
[Cb cap]
+14.8 +11.5 81 +14 +15 1009.8 1009.3
12 10.07 СЗ 4-6
{10}
20 км 9/9 300 м
[Cb cap]
+16.4 +11.6 73 +16 +17 1010.5 1010.0
15 10.07 СЗ 3-7
{10}
20 км н/о +14.9 +9.6 71 +14 +14 1010.8 1010.3
18 10.07 СЗ 4-7
{8}
20 км {ливн. осадки} 10/10 300 м
[Cb cap]
+14.6 +10.8 78 +13 +13 1010.9 1010.4 +16.2 0.0
21 10.07 С 4-7
{8}
20 км 9/9 600 м
[Cu Sc]
+14.5 +9.9 74 +13 +13 1011.2 1010.7
00 11.07 С 3-5
{6}
20 км 6/6 600 м
[Cu Sc]
+14.3 +9.6 73 +13 +13 1011.1 1010.6
03 11.07 С 2-5
{6}
20 км 8/8 600 м
[Cu Sc]
+14.3 +10.2 76 +14 +14 1010.8 1010.3 +13.2
06 11.07 СЗ 2-4
{5}
20 км 4/4 600 м
[Cu med, cong]
+16.4 +9.8 65 +17 +20 1011.0 1010.5 +14.0
09 11.07 З 2-4
{5}
20 км 1/1 600 м
[Cu med, cong]
+17.2 +10.8 66 +18 +30 опасность
простуды
1011.8 1011.3
12 11.07 З 4-5
{5}
20 км 3/1 600 м
[Cu med, cong Ci fib]
+18.0 +12.1 68 +18 +26 1011.6 1011.1
15 11.07 З 3-6
{6}
20 км 8/1 600 м
[Cu med, cong Ci fib]
+17.9 +12.1 69 +18 +22 1011.2 1010.7
18 11.07 СЗ 3-5
{6}
20 км 9/1 600 м
[Sc Ci sp]
+16.9 +13.0 78 +17 +17 1010.6 1010.1 +18.6
21 11.07 СЗ 3-6
{7}
20 км 8/3 600 м
[Sc Ci sp]
+17.2 +12.8 75 +17 +17 1010.7 1010.2
00 12.07 СЗ 2-5
{7}
20 км 8/8 600 м
[Cu Sc]
+16.3 +13.2 82 +16 +16 1010.3 1009.8
03 12.07 СВ 1-2
{5}
20 км 6/6 600 м
[Cu Sc]
+14.7 +12.7 88 +15 +15 1010.3 1009.8 +14.7
06 12.07 СВ 1-2
{4}
20 км 8/8 600 м
[Cu Sc]
+16.9 +11.8 72 +18 +19 1010.6 1010.1 +14.6
09 12.07 СЗ 2-3
{4}
20 км 9/1 600 м
[Cu Sc Ci sp]
+17.1 +11.8 71 +17 +28 1011.0 1010.5
12 12.07 С 3-6
{6}
20 км 9/1 600 м
[Cu Sc Ac trans Ci sp]
+18.4 +12.7 69 +19 +25 1011.0 1010.5
15 12.07 С 3-5
{7}
20 км 8/1 600 м
[Cu Sc Ci sp]
+17.8 +12.1 69 +18 +22 1010.4 1009.9
18 12.07 С 2-4
{6}
20 км 1/1 600 м
[Cu Sc]
+17.2 +12.1 72 +18 +18 1010.3 1009.8 +18.9
21 12.07 штиль 0-1
{5}
20 км 1/1 600 м
[Cu Sc]
+13.3 +11.5 89 +13 +13 1011.0 1010.5
00 13.07 С 1-1
{2}
20 км 1/1 600 м
[Cu Sc]
+13.1 +11.8 92 +13 +13 1010.7 1010.1
03 13.07 штиль 0-1
{2}
20 км 8/8 600 м
[Cu Sc]
+14.7 +13.3 91 +14 +14 1010.3 1009.8 +12.2
06 13.07 С 3-5
{5}
20 км 8/8 600 м
[Cu Sc]
+17.3 +14.2 82 +17 +18 1010.4 1009.9 +12.2
09 13.07 С 4-7
{7}
20 км 9/9 600 м
[Cu Sc]
+18.6 +14.2 76 +19 +20 1011.1 1010.6
12 13.07 С 5-8
{8}
20 км 9/3 600 м
[Cu Sc Ci fib]
+18.8 +13.1 69 +19 +24 1011.5 1011.0
15 13.07 С 4-7
{8}
20 км 9/4 600 м
[Cu Sc Ci fib]
+17.0 +10.8 67 +17 +19 1011.7 1011.2
18 13.07 С 3-5
{7}
20 км 3/3 600 м
[Sc]
+16.7 +10.5 67 +16 +17 1012.1 1011.6 +19.5
21 13.07 С 2-4
{5}
20 км 8/3 600 м
[Sc Ac trans]
+15.6 +11.2 75 +16 +16 1012.7 1012.2
00 14.07 СВ 1-3
{4}
20 км 6/3 600 м
[Sc Ac trans]
+14.7 +10.9 78 +15 +15 1012.6 1012.1
03 14.07 СВ 2-3
{4}
20 км {ливн. осадки} 6/6 600 м
[Cu Sc]
+14.3 +11.5 83 +14 +14 1012.6 1012.1 +13.9 0.5
06 14.07 С 3-6
{6}
20 км {ливн. осадки} 3/3 600 м
[Cu Sc]
+17.2 +10.1 63 +17 +20 1013.2 1012.7 +13.9 0.5
09 14.07 С 4-7
{8}
20 км 8/3 600 м
[Cu Sc Ci fib]
+18.1 +9.5 57 +18 +24 1014.1 1013.6
12 14.07 СЗ 3-6
{8}
20 км 4/1 600 м
[Cu med, cong Ci fib]
+18.4 +10.3 59 +19 +29 1014.5 1014.0
15 14.07 СЗ 3-6
{7}
20 км 6/3 600 м
[Cu med, cong Ci fib]
+18.8 +12.5 67 +20 +23 1014.4 1013.9
18 14.07 С 2-4
{6}
20 км 3/3 600 м
[Cu Sc Ci fib]
+17.0 +11.8 71 +17 +17 1014.0 1013.5 +19.1
21 14.07 С 1-1
{4}
20 км 3/3 600 м
[Cu Sc]
+14.1 +12.7 91 +14 +14 1014.5 1014.0
00 15.07 штиль 0-1
{1}
20 км 1/1 600 м
[Cu Sc]
+13.3 +12.5 95 +13 +13 1014.5 1014.0
03 15.07 СЗ 1-2
{2}
20 км 6/6 600 м
[Cu Sc]
+13.9 +12.9 94 +14 +14 1014.2 1013.7 +12.5
06 15.07 С 2-4
{4}
20 км 6/6 600 м
[Cu Sc]
+17.2 +12.7 75 +18 +20 1014.4 1013.9 +12.5
09 15.07 З 3-4
{4}
20 км 1/1 600 м
[Cu Sc]
+18.3 +11.7 65 +19 +29 1014.6 1014.1
12 15.07 З 3-4
{5}
20 км 3/3 600 м
[Cu med, cong]
+18.9 +10.8 59 +20 +28 1014.2 1013.8
15 15.07 С 2-4
{4}
20 км 8/4 600 м
[Sc diur, vesp Ac trans]
+19.8 +9.8 52 +22 +24 комфорт 1013.1 1012.6
18 15.07 С 2-4
{5}
20 км 8/3 600 м
[Cu Sc Ac trans]
+17.5 +12.8 74 +18 +18 1012.2 1011.7 +20.3
21 15.07 СЗ 3-6
{6}
20 км 9/3 600 м
[Cu Sc Ac trans]
+17.1 +13.2 78 +17 +17 1012.2 1011.7
00 16.07 З 4-5
{6}
20 км 6/6 600 м
[Cu Sc]
+16.9 +13.3 79 +16 +16 1011.1 1010.6
03 16.07 З 5-6
{6}
20 км 8/8 600 м
[Cu Sc]
+16.7 +12.0 74 +16 +16 1009.5 1009.0 +16.2
06 16.07 З 8-9
{9}
20 км 9/9 300 м
[Cb cap]
+16.8 +11.5 71 +15 +16 1008.2 1007.7 +16.2

 

Местоположение метеостанции Балтийск (Калининградская область, Россия): широта 54.65 долгота 19.88 высота над уровнем моря 4 м.

В архиве по умолчанию представлена погода в Балтийске за последнюю неделю. Архивные данные за месяц целиком и за предыдущие месяцы, начиная с января 2011 года, Вы можете получить, выбрав интересующий диапазон дат из раскрывающегося списка и нажав кнопку "Ввод!".


*Определитесь, кто Вы:
робот инопланетянин человек

Внимание! Время в таблицах - всемирное. Для получения местного времени необходимо прибавить поправку, которая равна 2 ч.

Смотрите также архив погоды в соседних городах и на ближайших метеорологических станциях:

Погода в Мамоново (Калининградская область, Россия) (20 км)
Погода в Рыбном Порту (Калининградская область, Россия) (37 км)
Погода в Пионерском (Калининградская область, Россия) (40 км)
Погода в Калининграде (Калининградская область, Россия) (48 км)
Погода в Эльблонге (Польша) (61 км)
Погода в Хеле (Польша) (68 км)
Погода в Рыбачем (Калининградская область, Россия) (84 км)
Погода на Авиабазе Гдыня-Оксывье (Польша) (88 км)
Погода в Железнодорожном (Калининградская область, Россия) (97 км)
Погода в Ольштыне (Польша) (104 км)

Пояснения к столбцам:

Ветер - указаны скорость ветра в м/с - средняя за 10 мин, порывы в срок и между сроками (в фигурных скобках) и направление, откуда дует ветер: С - северный, СВ - северо-восточный, В - восточный, ЮВ - юго-восточный, Ю - южный, ЮЗ - юго-западный, З - западный, СЗ - северо-западный.
Видимость - горизонтальная дальность видимости в метрах или километрах. При видимости от 1 до 10 км при отсутствии осадков обычно наблюдается дымка, при ухудшении видимости до 1 км и менее - туман. В сухую погоду видимость может ухудшаться дымом, пылью или мглою.
Явления - указаны атмосферные явления, наблюдавшиеся в срок или в последний час перед сроком; фигурными скобками обозначены явления, наблюдавшиеся между сроками (за 1-3 часа до срока); квадратными скобками обозначены град или гололедные отложения с указанием их диаметра в мм.
Облачность - указаны через наклонную черту общая и нижняя облачность в баллах и высота нижней границы облаков в метрах; квадратными скобками обозначены формы облаков: Ci - перистые, Cs - перисто-слоистые, Cc - перисто-кучевые, Ac - высококучевые, As - высокослоистые, Sc - слоисто-кучевые, Ns - слоисто-дождевые, Cu - кучевые, Cb - кучево-дождевые. Подробнее классификацию облаков см. в Атласе облаков (PDF).
T - Температура воздуха - температура, измеренная на высоте 2 м над землей.
Td - Температура точки росы - температура, при понижении до которой содержащийся в воздухе водяной пар достигнет насыщения.
f - Относительная влажность воздуха - влажноcть воздуха, измеренная на высоте 2 м над землей.
Te - Эффективная температура - температура, которую ощущает одетый по сезону человек в тени. Характеристика душности погоды. При расчете учитывается влияние влажности воздуха и скорости ветра на теплоощущения человека.
Tes - Эффективная температура на солнце - температура, которую ощущает человек, с поправкой на солнечный нагрев. Характеристика знойности погоды. Зависит от высоты солнца над горизонтом, облачности и скорости ветра. Ночью, в пасмурную погоду, а также при ветре 12 м/с и более поправка равна нулю.
P - Атмосферное давление - приведенное к уровню моря атмосферное давление.
Po - Атмосферное давление - измеренное на уровне метеостанции атмосферное давление.
Tmin - Минимальная температура - минимум температуры воздуха на высоте 2 м над землей.
Tmax - Максимальная температура - максимум температуры воздуха на высоте 2 м над землей.
R - Количество осадков - Количество выпавших осадков за период времени, мм. При наведении курсора мыши на число - период времени, за который выпало указанное количество осадков.
R24 - Количество осадков - Количество выпавших осадков за 24 часа, мм.
S - Снежный покров - Высота снежного покрова, см. При наведении курсора мыши на число - состояние снежного покрова и степень покрытия местности в баллах.